Showing default

IRIDIUM 160, 43569

Orbit data source: Space-Track

IRIDIUM 160, 43569 is a payload satellite owned by Iridium (US) in LEO that was launched on Wed, 25 Jul 2018 UTC via an FALCON 9 launch vehicle from the Air Force Western Test Range (AFWTR). Payload-class satellites include a variety of spacecraft equipped with specific instruments for various scientific and technological missions. These include communications satellites like Starlink; space stations such as the ISS; scientific satellites like the Hubble; Earth observation satellites from companies like Planet Labs, Umbra, and HawkEye 360; GPS; miniature CubeSats for education and research; and military/defense satellites.

Loading next visibility...
Identifier
43569, 2018-061A
Orbit
LEO
Country
Flag of USUS
Related business
Manufacturer
NGIS SSG Gilbert
Mission
Operational Commercial Communications
Bus & Motor
ELITEBUS, Unknown motor
Mass
860 kg wet, 700 kg dry
Launch date (UTC)
2018-07-25 (7 years ago)
Launch vehicle
FALCON 9
Launch site
Air Force Western Test Range (AFWTR)
Object type
Payload
Rocket body
Debris
Shape & HBR
Trap Box + 2 Pan, 4.7 m
Radar Cross Section
14.423 m², Large (>1 m²)

Expand to show TLE details & history
Last TLE update: 1 day ago

TLE from 1 day ago
0 IRIDIUM 160
1 43569U 18061A   25260.89336172 -.00000021  00000-0 -14394-4 0  9997
2 43569  86.4049 170.5921 0001866  86.5906 273.5503 14.34217468374346
Epoch: 2025-09-17T21:26Z
TLE epoch observation values (Epoch: 2025-09-17T21:26:26.452Z)
Latitude
-0.00005°
Longitude
-148.0809°
Altitude
780.637 km
Speed
7.464 km/s
True Right ascension
11h 22m 22s
True Declination
0° 00' 00"
Sunlit
Object was in daylight at epoch
Visualization orbit readout
Latitude
Unknown
Longitude
Unknown
Altitude
Unknown
Speed
Unknown
Apparent Right ascension
Unknown
Apparent Declination
Unknown
Sunlit
N/A
Visualization observer readout
Local Sidereal Time
14:27:23
Azimuth
Unknown
Elevation
Unknown
Doppler factor
Unknown
Orbital elements
Apogee altitude
775.967 km
Perigee altitude
773.298 km
Semi-major axis
7,152.769 km
Eccentricity
0.00019
Inclination
86.4049°
RAAN
170.5921°
Arg. of periapsis
86.5906°
True anomaly
273.52896°
Mean anomaly
273.5503°
Eccentric anomaly
273.53963°
Mean motion
3.58783 °/min
Orbital period
100.34 mins
BSTAR
-0.000014394
Loading maneuver chart data...
Computing Atmospheric mass density...
Loading historical data...
Loading historical data...
Loading historical data...
Loading historical data...
Loading historical data...
Loading historical data...
Loading historical data...

Documentation

Showing up to 5 results
|